TIMESTAMP,CO2_1_1_1,H2O_1_1_1,TAU_1_1_1,TAU_SSITC_TEST_1_1_1,H_1_1_1,H_SSITC_TEST_1_1_1,LE_1_1_1,LE_SSITC_TEST_1_1_1,FC_1_1_1,FC_SSITC_TEST_1_1_1,WD_0_0_1,WS_0_0_1,WS_MAX_0_0_1,U_SIGMA_0_0_1,V_SIGMA_0_0_1,W_SIGMA_0_0_1,USTAR_0_0_1,MO_LENGTH_0_0_1,ZL_0_0_1,FETCH_MAX_0_0_1,FETCH_70_0_0_1,FETCH_80_0_0_1,FETCH_90_0_0_1,PA_0_0_1,RH_0_0_1,TA_0_0_1,VPD_0_0_1,T_SONIC_0_0_1,T_SONIC_SIGMA_0_0_1
[yyyymmddHHMMSS],[mmolCO2 mol-1],[mmolH2O mol-1],[kg m-1 s-2],[#],[W m-2],[#],[W m-2],[#],[umolCO2 m-2 s-1],[#],[Decimal degrees],[m s-1],[m s-1],[m s-1],[m s-1],[m s-1],[m s-1],[m],[#],[m],[m],[m],[m],[kPa],[%],[deg C],[hPa],[deg C],[deg C]
20191117003000,417.00880256548669,4.7240358890800707,1.5454314778615335,0,-14.118017669179300,0,11.739862002556420,1,1.5901088006739919,1,140.35105009016337,5.0778092079871291,13.716054582559041,2.2415279204024405,1.7694049656018347,1.3099877485154166,1.1342828046544029,8629.7496913287814,2.20168610673508909E-003,111.58817923033585,204.01878085745724,244.15837356267647,305.65731081387958,94.193389493923604,75.435172413793097,-0.44413793103450416,1.4494055688689571,-0.78386967425876719,7.31971955328945406E-002
20191117010000,417.38899770468322,4.7971394880615286,1.6899732701610974,0,-4.4427366671144011,1,3.8489864703795846,1,0.96340331934258561,0,143.03799503881888,5.0561386697354935,13.972161404174955,2.2947099140565430,1.8052205848115432,1.3595061132336035,1.1860010235045999,31345.767472496627,6.06142440655535442E-004,112.25818572219482,205.24376641218603,245.62436840601063,307.49256239645740,94.181805430555571,77.185000000000002,-0.54966666666666697,1.3358367961964279,-0.88522957526311075,8.61639216878194586E-002
20191117013000,417.65702333815062,4.8493507240310523,1.4539216138039921,0,-1.8948428422277344,2,1.0830179341092778,2,0.87955778121120609,0,143.01816775847118,4.7201333131220311,13.551855480435126,2.1886827826332507,1.8467451469854164,1.3283114380757355,1.0997468538638167,58591.004854092665,3.24281859430728347E-004,107.65870525022167,196.83444918036099,235.56056344910564,294.89387280495203,94.166357801257433,79.185333333333332,-0.75400000000001910,1.2006614268379128,-1.0808864204786914,8.19518149435125159E-002
20191117020000,417.99462608972311,4.8945524416292070,1.4355228119210270,0,0.21586859362831884,2,0.60107448774784522,2,0.44584173632934754,2,144.41077409747527,4.7563662753238134,13.239536412615472,2.2119764958115562,1.7058540205518335,1.3199315123174100,1.0925977910553173,-504213.47787179879,-3.76824516476549539E-005,107.64206890045661,196.80403262709885,235.52416260334695,294.84830326554362,94.134422389408670,80.961333333333329,-0.93500000000000227,1.0837692031798554,-1.2554611786832766,9.20779954272633733E-002
20191117023000,418.51511869909882,4.9302523134755658,1.1457091688975896,0,-8.2772888545783729,0,1.0643888721105714,0,0.79900106782204428,0,144.28864500110382,4.9864554209530612,13.881097379324002,2.1175639426767345,1.7610955800077743,1.2715867872328512,0.97580562983537900,9366.9868475875046,2.02840041404493991E-003,101.31383387425498,185.23400071215809,221.67778942854648,277.51428712110646,94.126415114441514,82.680000000000007,-1.1236666666666792,0.97239913329009942,-1.4384702046005486,8.40905277817447089E-002
20191117030000,418.59968094516540,4.9277569114831357,1.7258947232212458,0,-5.7363951874049777,0,6.4299076909554014,0,1.5878858415539003,0,144.95072845437275,5.4250834824591196,15.366668296029028,2.5020398028582602,1.9741070780845691,1.4409394893683991,1.1981043771337583,25008.169276221251,7.59751735128646349E-004,108.02742617713380,197.50858863226446,236.36733619541562,295.90385654819539,94.077490894965280,82.226666666666659,-1.0626666666666438,1.0023229674345322,-1.3819673063489972,8.38246464831057247E-002
20191117033000,418.82638271285390,4.9639700053051916,1.5980790043559563,0,-12.253196745690932,0,6.5517846254784553,0,1.2915839249143299,0,147.26952973248291,4.9487734108682986,12.744598334348741,2.3269198621418923,1.8691499707824906,1.3512728599976143,1.1530548181914260,10435.704585594356,1.82067246577945099E-003,110.29108785413791,201.64728413569082,241.32029767543619,302.10437658139091,94.071858430338551,82.466666666666669,-1.0033333333333303,0.99309638393719124,-1.3175355521307779,7.60859775983152714E-002
20191117040000,419.41292729649564,5.0373642013206723,1.6097211752445690,0,-9.2119843456196691,0,-0.18918267310264675,2,0.52906558453811581,0,142.67876986410420,4.7194814547862460,14.247158945641791,2.3028124598802218,1.6850066777734436,1.3132722362122731,1.1574647370712972,14039.612082931273,1.35331374455134297E-003,113.18198450766347,206.93276522253385,247.64566860568166,310.02299039023825,94.059167367187499,83.320000000000007,-0.94533333333333758,0.94878485956905478,-1.2489431347316895,6.87738403663762515E-002
20191117043000,420.09512576001362,5.0983257856901121,1.0518775915545484,0,-1.6691364229973502,1,-1.2990107778079700,2,6.58097721446144202E-002,2,144.20578452318699,4.2671895087571476,11.720071371965759,2.1255799514027363,1.4829973463265389,1.1164850759443066,0.93564729538101543,40928.639596582834,4.64222612509855473E-004,108.70819763211185,198.75325597288381,237.85688510966253,297.76859503252825,94.057171545355899,84.423333333333332,-0.96100000000001273,0.88500965418261901,-1.2523816299438408,5.78267769979239898E-002
20191117050000,420.58614470221568,5.1342103548540194,1.1164262065971173,0,-3.9947253835905188,0,2.2991434191011075,0,1.0419455252819101,0,147.96886905517957,3.7754624205657525,10.997995639877889,1.7591222649889218,1.4827512908189393,1.1441645478823352,0.96411836530530493,18707.677854778241,1.01562578463724692E-003,109.18636173218665,199.62749245043847,238.90312289018354,299.07836058264911,94.036039932725686,84.733333333333334,-0.91833333333335077,0.87011048308646310,-1.2008230421278085,6.64809504542912405E-002
20191117053000,421.04381967833729,5.1243173070254304,1.2153244689624210,0,-12.836296996974305,0,3.5195185362687673,0,1.5981170844682469,0,150.46348516255730,3.7561200973837643,10.715438614351141,1.9617811645847127,1.4528320879823589,1.1783577014558628,1.0061009706990303,6616.1502975508183,2.87176063806069554E-003,110.34341952320572,201.74296311707658,241.43480097940213,302.24772113049994,94.037491920641685,83.920000000000002,-0.81266666666664378,0.92357910781043306,-1.0966182240119338,7.08112062418752852E-002
20191117060000,421.47544360225601,5.1008339730142982,0.83011308200915868,0,-8.4048524313466668,0,4.3381705789776133,0,1.3242005397611913,0,149.57229457656456,3.8882526362900096,12.199397606021046,1.8352262801155232,1.4047516114401739,1.0672192281088548,0.83162290246887782,5706.5971841929686,3.32947979097406640E-003,102.56357245079803,187.51892141375453,224.41225593146737,280.93751469916401,94.040143980468756,83.000000000000000,-0.72433333333333394,0.98274712408901166,-1.0145354682074412,5.86285838542283666E-002
20191117063000,422.20718874445373,5.0643222524037812,0.85856380132270704,0,-9.8558337853673290,0,2.5976167900098921,1,1.2393584033759872,1,150.19743685562145,3.5591989260384427,10.557158580377896,1.8225747611615497,1.4647145816916847,1.0734995975016768,0.84590715305306530,5120.7944951140280,3.71036174525822592E-003,103.48360485710919,189.20103408177738,226.42531517752073,283.45762599692273,94.021029184461810,82.106666666666669,-0.67733333333330847,1.0379481142672478,-0.97157293531626010,5.87078802903321303E-002
20191117070000,423.06093239108634,5.0202673601456640,0.65110701430428097,0,-10.187493495275358,0,5.4651599737777197,0,0.51204125361112918,0,150.17375834826882,3.3382097211074973,9.7854935249491959,1.6421996771375111,1.3321124348602267,0.94194988120349854,0.73667637399257691,3271.2167480047165,5.80823634251355532E-003,102.86178503800969,188.06414913320395,225.06475425854575,281.75436517639793,93.986883125651048,81.819999999999993,-0.75400000000001910,1.0486848091047944,-1.0537726143730879,6.04489490255931544E-002
20191117073000,423.87095972799261,4.9898308280983885,0.71163756509316323,0,-7.6806923018657276,1,5.1230148019489743,0,0.31046553368251018,2,148.59169904250288,3.2597486795977964,10.734293834174021,1.6112119015516637,1.3148126243848277,0.96588497025976838,0.77013846112295947,4956.0201604625008,3.83372128942810865E-003,104.46471493193299,190.99481620756464,228.57201424374057,286.14503849125185,93.951530232525840,81.969999999999999,-0.86733333333330620,1.0314470801895743,-1.1717679953466131,6.40035600331411852E-002
20191117080000,424.56700521553563,4.9487377820722989,0.76991829258557498,0,-10.918896999919879,0,7.5990910798238831,0,0.62181989996346632,1,145.64513609683897,3.5779390660938390,9.9151094766054335,1.6393674059680090,1.3871822110018006,0.99030691629393175,0.80109181151020792,3922.4207918541597,4.84394740091578704E-003,105.67807266682144,193.21322112754214,231.22687834443124,289.46861330768189,93.909877095501926,81.799999999999997,-0.95800000000002683,1.0342851239150184,-1.2643849687929105,5.45512812456274698E-002
20191117083000,425.14488166470733,4.8998180767543502,0.63876600252149729,0,-12.608948756305852,0,11.143577243081578,0,0.98720676417457887,0,148.72078100244596,3.2784381150637625,10.368590033707774,1.5570051254047157,1.3216967946975935,0.97124575263594526,0.72990207212882718,2568.3366028136834,7.39778422313686502E-003,99.633014602846984,182.16092701421252,218.00010508607971,272.91026273423802,93.865723611863686,80.688999999999993,-0.91333333333335531,1.1010166789894766,-1.2200299618203303,6.58584793903431720E-002
20191117090000,425.43141221011524,4.8296193241344216,0.57404298937742637,0,-12.510777022771729,0,10.714709681704992,0,0.93732334055963507,0,145.16948694420361,2.9603474855899767,9.4095838298670547,1.4549486032340055,1.1575416124021149,0.89060530814651950,0.69226851994944871,2207.3197273118521,8.60772445645599169E-003,102.35907270197116,187.14503065104930,223.96480418154246,280.37735820481424,93.803152312282975,78.973666666666674,-0.82600000000002183,1.2065020270315614,-1.1397074084811720,5.55769098589685637E-002
20191117093000,425.36040398399916,4.7696443136020470,0.70474440528629934,0,-6.8779183999188938,1,5.4576496712391060,1,1.0540409176397170,0,158.95919041853026,2.8456321688413908,8.3799391959320264,1.5571159000399770,1.0941071145097745,0.90217984715889832,0.76739709142217738,5467.7128983263410,3.47494470783494712E-003,110.01110363441386,201.13538368564835,240.70768357793457,301.33745642675223,93.766818283637150,77.090000000000003,-0.67200000000002547,1.3294704725013486,-0.98401029205319901,7.76301422946479996E-002
20191117100000,425.19762919212491,4.7213529530599638,0.62103411728567748,0,-12.499803685825077,0,9.5297501374207023,0,1.3881175367185492,0,159.39569242136852,2.9385624337869656,9.1777837521582164,1.5402099287903572,1.1448766433011890,0.86332276178674283,0.72070922371612056,2491.3950108154700,7.62624951784784347E-003,108.37382726010901,198.14192029090214,237.12527243564227,296.85270278097300,93.726279063802068,75.524666666666661,-0.53633333333334576,1.4344457275841069,-0.86143942175971233,6.27256029813476751E-002
20191117103000,425.15353166779397,4.7445518638083897,0.53489928265008513,0,-8.9446558928783375,0,10.162574872683214,0,1.5604837431150989,0,160.23409227407311,2.9574477999111828,9.1235241014958586,1.4177619280565692,1.1728096720468544,0.86877757586821880,0.66890788387629452,2782.8672787247638,6.82749053296809183E-003,101.58300815106068,185.72613713889135,222.26675103794895,278.25159716735135,93.693150350911452,76.222333333333339,-0.60000000000002274,1.3870959853485414,-0.92835269927974196,6.33620019299703380E-002
20191117110000,425.61326584068132,4.9987944639905457,0.54292235919886900,0,-14.503048635663907,0,11.836352102503554,0,1.0381553868170463,0,159.88447057428971,3.2868667940359453,10.949193429683829,1.5260976459316118,1.1687986997445452,0.89913832217565459,0.67329097216700884,1750.2381847395345,1.08556653406733476E-002,99.347267448530644,181.63849008174165,217.37488151016646,272.12755700892313,93.685891741753466,83.563666666666663,-1.1443333333333499,0.92138981374380768,-1.4699738845826005,0.23325429324174263
20191117113000,426.04323283777762,5.1174950645401731,0.52755651391021274,0,-16.681160464584476,0,10.675335036443334,0,1.4418757931328212,0,153.33882858176153,3.0175219874404617,8.1147501075921760,1.3465651883040104,1.1135654290477732,0.80088390342208382,0.66351279934955076,1455.9685800547309,1.30497321578778684E-002,107.71562152784000,196.93851028836301,235.68509801780621,295.04977530715564,93.648233221645555,87.230000000000004,-1.4150000000000205,0.70177602128369809,-1.6935438649636012,6.59300714146637268E-002
20191117120000,426.55460035747768,5.1976837538592040,0.44130284461852071,0,-17.820304765421557,1,12.075330630758918,1,1.3898993713578800,1,150.80098891192361,2.7016001778905063,7.2843059947937085,1.2763506340847137,1.1257352926790682,0.79613291172420564,0.60674063639921749,1041.9460089681588,1.82351099159309971E-002,100.75553276303640,184.21324821984379,220.45620939907050,275.98501388216215,93.622878392578130,89.766666666666666,-1.5969999999999800,0.55489440062796525,-1.8653861787583992,7.18771713409848828E-002
20191117123000,426.98345864035321,5.1648493815122167,0.37490563553618994,0,-13.059276178957088,0,8.6851949156360124,1,0.70678578109284185,0,151.71366893625731,2.7920022062877798,8.2665978858641473,1.2286573234179541,1.0347197193945032,0.74641389587698470,0.55948723857835625,1114.5379842066627,1.70474225815859977E-002,99.426757184003421,181.78382267013674,217.54880750001436,272.34529170940391,93.590833097222230,88.166666666666671,-1.4433333333333280,0.64894834644746657,-1.7053984222411600,0.11444414306640277
20191117130000,427.57615275024352,5.2093447196023108,0.47226245078708329,0,-13.963135523329154,1,10.935188028722418,1,1.0780023704562061,1,149.57887991231223,3.2932436762219450,8.0141176907923999,1.3621249354890161,1.1204727330370532,0.80222106104839486,0.62796564253156018,1473.5241557433453,1.28942575701550769E-002,102.93625378736425,188.20030175761352,225.22769417609851,281.95834661802002,93.556565114800350,89.453333333333333,-1.5286666666666520,0.57476794117448204,-1.8150501386853648,0.16070583513723988
20191117133000,428.03337027176059,5.3721407675001789,0.44039346100288834,0,-8.2278121822557484,0,-0.77512895707251173,2,0.63325930814175879,0,145.86228626646778,2.8373577662915430,7.7725982230077140,1.2873742157816912,1.0022738494440739,0.76981042137103362,0.60622364907042114,2249.5735646538856,8.44604519653630384E-003,103.43182090373969,189.10635649937311,226.31201029237474,283.31578172596670,93.539379250293464,93.816666666666663,-1.7599999999999909,0.33128441687650595,-2.0281837036037587,5.60829922783158685E-002
20191117140000,428.32437660516621,5.4483416902222048,0.60744412222010413,0,-5.9794257224562291,0,1.4923317077948941,1,1.6352508967456378,0,147.22584518091625,2.7880877419455858,8.4070228912092766,1.3297033307445434,1.0934643042220420,0.88374295131521952,0.71206902178738674,5015.8578509833651,3.78798613606544420E-003,105.34448477686291,192.60331607229728,230.49697776522783,288.55486439567278,93.523380347736321,95.016666666666666,-1.7436666666666838,0.26731366398568979,-1.9975120947541996,6.25411843058127637E-002
20191117143000,428.30588624977628,5.4873871943778809,0.68695822573934362,0,-12.310581309541307,1,2.8394944138614027,0,1.3643559071853109,0,150.89806947480014,2.9461271545853434,7.8038952968153392,1.5364287757722377,1.1090422047221296,0.82813847543035668,0.75740098671221134,2931.6342465174757,6.48102675924540524E-003,116.58246213794156,213.14992285739726,255.08601841039692,319.33742544171537,93.514062993110358,95.099999999999994,-1.6600000000000250,0.26446887901271454,-1.8064964551318212,7.14751752240786326E-002
20191117150000,428.35721513795437,5.7770913090947076,0.50671431588995686,0,6.4647566534014533,0,2.8643080255861890,1,0.99996255611961982,0,152.27904262929272,2.7248276142248922,7.9224729877678648,1.2758179298856640,1.0633623230416676,0.81692766745916190,0.65144765180050390,-3552.0282855353848,-5.34905650311740064E-003,104.47482065558965,191.01329269346428,228.59412587840208,286.17271963398611,93.500399669053820,94.893606089293286,-0.93179354858398256,0.29074786954717868,-1.6546815287271670,6.05865073268559290E-002
20191117153000,428.46041969190713,5.8148015341302797,0.63532463470576150,0,7.5838059783882024,0,6.0957112992390812,0,1.1866092113937985,0,153.47815310557888,2.7465099675032905,8.0863176687032468,1.3919308879218730,1.0874551968436448,0.86658923440685620,0.72973178336078337,-4254.9128502881922,-4.46542635972276090E-003,109.12766884804319,199.52018313908889,238.77470105167865,298.91759167993069,93.468671073541827,94.689515625469767,-0.81809742619361714,0.30489456583167796,-1.5613860920395268,3.94781080666808185E-002
20191117160000,428.55092937557316,5.7941624401560938,0.38245957093807426,0,2.3127945042530231,0,2.4002662147188842,0,0.83333387845980256,0,156.29810646441845,3.4168776865945372,9.9726103185123485,1.4442629006887713,1.1479471868601070,0.86407113440473571,0.56624311670154948,-6517.9108181867468,-2.91504448741225844E-003,89.293048602569144,163.25617140269028,195.37594096104229,244.58749393067038,93.453588678648089,94.239510952214516,-0.80378683933327011,0.33107734253786475,-1.4888943097134302,5.24477334027550549E-002
20191117163000,428.66021561890312,5.8403548870338469,0.41729438066457186,0,11.379149337266357,1,9.3804614441954151,1,1.0767199952694853,0,160.34950939185413,2.7806816711243068,6.8699635970474571,1.3494245820297928,1.0554161603542889,0.74313850185643116,0.59168237685342628,-1511.4470776117300,-1.25707345506415671E-002,104.34460443414856,190.77521591033621,228.30920877465664,285.81603722959028,93.452337042317708,93.687926075584542,-0.61498010084363841,0.36781914859590642,-1.3544816606309382,6.27540245194377344E-002
20191117170000,428.76030665071841,5.9241576984242466,0.43556651277098046,0,15.344938124544466,0,4.1600674856910542,1,0.69682978670108420,0,163.39196510822194,2.6755185449189911,8.0499251865199835,1.3008609370900659,1.0375571179356931,0.80190217083670001,0.60487669534192234,-1197.3396746576418,-1.58685128390427012E-002,99.928937635674643,182.70196869803209,218.64759379763757,273.72084176730283,93.433527754774289,93.103881866306295,-0.33666593509246923,0.41009336283259135,-1.1850293579101390,6.75619579987073449E-002
20191117173000,428.75133988191675,5.9795899895866738,0.27917455089338489,0,16.886005889548660,0,2.1863314321724374,2,0.88497901519643019,0,165.70712155148348,2.5526106397777237,7.8518813856443108,1.2006600292123697,0.93164593741874357,0.70355259149029681,0.48453591421661524,-559.07276918451532,-3.39848424878824232E-002,92.913415369360990,169.87535650914398,203.29741497000219,254.50423939358680,93.382487179937982,92.853675280382973,-0.17928490078884352,0.42986983432169840,-1.0321120557039194,5.74548557384411338E-002
20191117180000,428.71679942586422,6.1206211237324206,0.29846049058689189,0,24.981171252360372,0,6.8430241343842111,0,0.94944921450809572,0,168.24527757086588,2.0122368932188159,6.1239276539809877,0.96840766485739915,0.86874240893809196,0.67535113803121627,0.50138382856612673,-418.56512548078729,-4.53931750242582630E-002,98.665983394795632,180.39288554710959,215.88421101404901,270.26141443718006,93.333084105061545,93.167592102528175,8.77502448189488859E-002,0.41904099049478533,-0.99099937094717916,7.61650562913974288E-002
20191117183000,428.76231298324529,6.1594299857759500,0.27215189486423974,0,18.495709654283068,0,12.433669173081771,0,0.83391065256134567,0,178.99234968617048,2.0690743135456402,6.0911877715417244,1.0018065088894290,0.91039212262546698,0.65652375797069529,0.47883479880801999,-492.35161169205179,-3.85903073104670105E-002,97.275418122292351,177.85048873092680,212.84161136228551,266.45244072118118,93.309499309461813,93.777018107901938,8.15249362522081356E-002,0.38149159977375802,-0.92029118516705921,6.00433250463031573E-002
20191117190000,428.70574279560788,6.1886971722672008,0.36239779942552763,0,18.094107384739775,0,10.696210554711671,0,0.73499900864882839,0,187.66920947246052,2.1750405575982539,5.6718533746817208,1.0769678673534619,0.82480572034671706,0.63981033866906944,0.55259993030380872,-773.42356268809783,-2.45660992457534151E-002,111.36341944698491,203.60784829003543,243.66659223311476,305.04165894616375,93.288687194827631,94.311995083381731,6.53928001808026238E-002,0.34828736851295389,-0.89763487921675278,6.13160185799314847E-002
20191117193000,428.82149338293192,6.2361482561341743,0.29962914884003899,0,12.618150385830887,0,9.7101148594020703,0,0.88065353604570651,0,175.32439551896590,1.9900256787100625,5.1768765497855558,0.94157642318724877,0.78668723667789076,0.59350477568005278,0.50254785332980134,-834.03190733850647,-2.27809030239996754E-002,109.61183878016256,200.40540019308290,239.83407977771921,300.24380813448073,93.264788903862851,94.943081608391665,7.52091106838861378E-002,0.30986551316835403,-0.81316009775792963,5.64808292903689543E-002
20191117200000,428.77348863184420,6.2647825357380471,0.25808009690588934,0,21.510197904637916,0,13.296559258344914,0,0.80234322396294211,0,178.35385975941028,1.9264079109426602,5.2226195814309060,0.94572419614678693,0.77723127538095071,0.58572220062544633,0.46661970390755164,-391.57030275747155,-4.85225765748841936E-002,104.39315195646485,190.86397626456846,228.41543224896188,285.94901641448439,93.239465154947922,94.149590365644315,0.25028703392877105,0.36306977327583129,-0.66503801642522831,8.20165948609370699E-002
20191117203000,428.60838382370707,6.2241795777579867,0.29909155646274149,0,15.916177767284955,0,13.059007706150036,0,0.95643001819155704,0,176.62114873444801,2.3102214876060949,5.6430893973109564,1.0134401232859818,0.86064450392446545,0.64124945220687746,0.50236905087392925,-660.27250662775248,-2.87759974999410272E-002,103.00340823307367,188.32308150218230,225.37463017196302,282.14229304878279,93.218848089192704,93.601521673094211,0.23807905578615873,0.39673098424947512,-0.58350828806555910,5.13472812124305192E-002
20191117210000,428.53354770743442,6.2686484603999171,0.21087776989576099,0,8.0402844727755785,0,10.175308276993780,0,1.0988825765278201,0,178.95210263629727,1.7510106773971430,5.1017393153302919,0.82105140698634205,0.70493931878624061,0.53910221006688086,0.42185571296791802,-773.88367601622065,-2.45514934464152700E-002,102.90800476308340,188.14865353166394,225.16588444077783,281.88096816400855,93.206454487847225,94.299012796946471,0.23203971438942972,0.35332901521532450,-0.56463013627791270,4.46623784974339438E-002
20191117213000,428.55754910441982,6.3057338924348718,0.16267530452082071,0,4.4678510125415105,0,4.8868605540366508,0,0.75841177811520788,0,181.29658377369009,1.6830203397575028,4.1706065665964847,0.71707704820566709,0.62888625515001129,0.48150709760645072,0.37044775823822740,-942.99094118655046,-2.01486559097721583E-002,101.52063418280675,185.61209763176626,222.13027487401675,278.08074520495904,93.196864697640024,95.785178255134383,9.63899627899422740E-002,0.25866300629622740,-0.64883968854746854,2.85392472904284350E-002
20191117220000,428.70123863806947,6.3437967632859875,0.13119796186437357,0,1.6442605910793242,0,3.1480553022192939,0,1.0079542677610558,0,181.54856473823310,1.6974700992659477,4.2520000666431512,0.70956355436703555,0.63696634509261818,0.42862153127436953,0.33261964662561039,-1854.9269889232869,-1.02429907556786173E-002,102.22427315395548,186.89857408516585,223.66985861806521,280.00812135885451,93.204743249960075,96.959515550763754,1.26222719316615439E-002,0.18546249771185899,-0.65958732515531437,2.36041123894475853E-002
20191117223000,428.78711549629168,6.2969722738294287,0.11528573578740128,0,-3.3262357711838426,0,2.0454498472126978,1,0.97904670377627778,0,184.70448653963385,1.6081481595802158,4.3113979965577229,0.70728982799389672,0.62296707295370046,0.42310151954864184,0.31171188515855325,754.70942772988849,2.51752519604142612E-002,98.062265203391448,179.28909614718120,214.56325701408110,268.60773677932417,93.211659168073382,97.124287076373236,-0.11165333512860798,0.17383458456865697,-0.73084685285448359,4.87245556225345752E-002